{"data":{"norad_id":61639,"epoch":"2026-05-25T04:16:55.487136Z","epoch_age_seconds":56639,"freshness":"FRESH","line1":"1 61639U 24191U   26145.17841999 -.00001269  00000+0 -36599-4 0  9993","line2":"2 61639  43.0011  82.5949 0000698 248.0053 112.0725 15.27590868 89239","mean_motion":15.27590868,"eccentricity":6.98e-5,"inclination_deg":43.0011,"raan_deg":82.5949,"arg_perigee_deg":248.0053,"mean_anomaly_deg":112.0725,"bstar":-3.6599e-5,"rev_number":8923,"period_min":94.266078055659,"perigee_km":482.53764501281,"apogee_km":483.49546204888,"semimajor_km":6861.1535535308,"source":"CELESTRAK","updated_at":"2026-05-25T13:38:19.410500Z"}}